Time,TemperatureF,DewpointF,PressureIn,WindDirection,WindDirectionDegrees,WindSpeedMPH,WindSpeedGustMPH,Humidity,HourlyPrecipIn,Conditions,Clouds,dailyrainin,SoftwareType,DateUTC
2013-03-28 00:02:00,17.0,13.0,-100.00,North,10,7.0,14.0,87,-99.99,,,-99.99,,2013-03-28 08:02:00,
2013-03-28 00:11:00,17.0,13.0,-100.00,North,10,7.0,14.0,87,-99.99,,,-99.99,,2013-03-28 08:11:00,
2013-03-28 00:21:00,17.0,13.0,-100.00,NE,50,3.0,16.0,87,-99.99,,,-99.99,,2013-03-28 08:21:00,
2013-03-28 00:32:00,17.0,13.0,-100.00,NE,50,3.0,16.0,87,-99.99,,,-99.99,,2013-03-28 08:32:00,
2013-03-28 00:42:00,17.0,13.0,-100.00,NE,50,3.0,16.0,87,-99.99,,,-99.99,,2013-03-28 08:42:00,
2013-03-28 00:52:00,17.0,14.0,-100.00,North,5,2.0,14.0,88,-99.99,,,-99.99,,2013-03-28 08:52:00,
2013-03-28 01:01:00,17.0,14.0,-100.00,North,5,2.0,14.0,88,-99.99,,,-99.99,,2013-03-28 09:01:00,
2013-03-28 01:11:00,17.0,14.0,-100.00,North,5,2.0,14.0,88,-99.99,,,-99.99,,2013-03-28 09:11:00,
2013-03-28 01:22:00,17.0,14.0,-100.00,NE,45,6.0,14.0,88,-99.99,,,-99.99,,2013-03-28 09:22:00,
2013-03-28 01:32:00,17.0,14.0,-100.00,NE,45,6.0,14.0,88,-99.99,,,-99.99,,2013-03-28 09:32:00,
2013-03-28 01:42:00,17.0,14.0,-100.00,NE,45,6.0,14.0,88,-99.99,,,-99.99,,2013-03-28 09:42:00,
2013-03-28 01:52:00,17.0,14.0,-100.00,NNE,30,6.0,14.0,88,-99.99,,,-99.99,,2013-03-28 09:52:00,
2013-03-28 02:02:00,17.0,14.0,-100.00,NNE,30,6.0,14.0,88,-99.99,,,-99.99,,2013-03-28 10:02:00,
2013-03-28 02:12:00,17.0,14.0,-100.00,NNE,30,6.0,14.0,88,-99.99,,,-99.99,,2013-03-28 10:12:00,
2013-03-28 02:22:00,17.0,14.0,-100.00,North,5,6.0,14.0,88,-99.99,,,-99.99,,2013-03-28 10:22:00,
2013-03-28 02:32:00,17.0,14.0,-100.00,North,5,6.0,14.0,88,-99.99,,,-99.99,,2013-03-28 10:32:00,
2013-03-28 02:42:00,17.0,14.0,-100.00,North,5,6.0,14.0,88,-99.99,,,-99.99,,2013-03-28 10:42:00,
2013-03-28 02:52:00,17.0,13.0,-100.00,North,0,7.0,16.0,88,-99.99,,,-99.99,,2013-03-28 10:52:00,
2013-03-28 03:02:00,17.0,13.0,-100.00,North,0,7.0,16.0,88,-99.99,,,-99.99,,2013-03-28 11:02:00,
2013-03-28 03:12:00,17.0,13.0,-100.00,North,0,7.0,16.0,88,-99.99,,,-99.99,,2013-03-28 11:12:00,
2013-03-28 03:22:00,17.0,13.0,-100.00,NNE,25,4.0,12.0,87,-99.99,,,-99.99,,2013-03-28 11:22:00,
2013-03-28 03:32:00,17.0,13.0,-100.00,NNE,25,4.0,12.0,87,-99.99,,,-99.99,,2013-03-28 11:32:00,
2013-03-28 03:42:00,17.0,13.0,-100.00,NNE,25,4.0,12.0,87,-99.99,,,-99.99,,2013-03-28 11:42:00,
2013-03-28 03:52:00,17.0,14.0,-100.00,North,0,6.0,13.0,87,-99.99,,,-99.99,,2013-03-28 11:52:00,
2013-03-28 04:02:00,17.0,14.0,-100.00,North,0,6.0,13.0,87,-99.99,,,-99.99,,2013-03-28 12:02:00,
2013-03-28 04:12:00,17.0,14.0,-100.00,North,0,6.0,13.0,87,-99.99,,,-99.99,,2013-03-28 12:12:00,
2013-03-28 04:22:00,17.0,13.0,-100.00,NE,35,4.0,14.0,86,-99.99,,,-99.99,,2013-03-28 12:22:00,
2013-03-28 04:32:00,17.0,13.0,-100.00,NE,35,4.0,14.0,86,-99.99,,,-99.99,,2013-03-28 12:32:00,
2013-03-28 04:42:00,17.0,13.0,-100.00,NE,35,4.0,14.0,86,-99.99,,,-99.99,,2013-03-28 12:42:00,
2013-03-28 04:51:00,17.0,13.0,-100.00,NE,35,6.0,14.0,85,-99.99,,,-99.99,,2013-03-28 12:51:00,
2013-03-28 05:02:00,17.0,13.0,-100.00,NE,35,6.0,14.0,85,-99.99,,,-99.99,,2013-03-28 13:02:00,
2013-03-28 05:12:00,17.0,13.0,-100.00,NE,35,6.0,14.0,85,-99.99,,,-99.99,,2013-03-28 13:12:00,
2013-03-28 05:22:00,17.0,13.0,-100.00,NE,40,4.0,13.0,84,-99.99,,,-99.99,,2013-03-28 13:22:00,
2013-03-28 05:32:00,17.0,13.0,-100.00,NE,40,4.0,13.0,84,-99.99,,,-99.99,,2013-03-28 13:32:00,
2013-03-28 05:41:00,17.0,13.0,-100.00,NE,40,4.0,13.0,84,-99.99,,,-99.99,,2013-03-28 13:41:00,
2013-03-28 05:52:00,17.0,13.0,-100.00,NNE,20,6.0,16.0,84,-99.99,,,-99.99,,2013-03-28 13:52:00,
2013-03-28 06:02:00,17.0,13.0,-100.00,NNE,20,6.0,16.0,84,-99.99,,,-99.99,,2013-03-28 14:02:00,
2013-03-28 06:12:00,17.0,13.0,-100.00,NNE,20,6.0,16.0,84,-99.99,,,-99.99,,2013-03-28 14:12:00,
2013-03-28 06:22:00,17.0,13.0,-100.00,NE,50,6.0,12.0,84,-99.99,,,-99.99,,2013-03-28 14:22:00,
2013-03-28 06:32:00,17.0,13.0,-100.00,NE,50,6.0,12.0,84,-99.99,,,-99.99,,2013-03-28 14:32:00,
2013-03-28 06:42:00,17.0,13.0,-100.00,NE,50,6.0,12.0,84,-99.99,,,-99.99,,2013-03-28 14:42:00,
2013-03-28 06:51:00,17.0,13.0,-100.00,NNE,20,6.0,11.0,85,-99.99,,,-99.99,,2013-03-28 14:51:00,
2013-03-28 07:02:00,17.0,13.0,-100.00,NNE,20,6.0,11.0,85,-99.99,,,-99.99,,2013-03-28 15:02:00,
2013-03-28 07:12:00,17.0,13.0,-100.00,NNE,20,6.0,11.0,85,-99.99,,,-99.99,,2013-03-28 15:12:00,
2013-03-28 07:21:00,17.0,13.0,-100.00,NNE,30,3.0,11.0,86,-99.99,,,-99.99,,2013-03-28 15:21:00,
2013-03-28 07:32:00,17.0,13.0,-100.00,NNE,30,3.0,11.0,86,-99.99,,,-99.99,,2013-03-28 15:32:00,
2013-03-28 07:43:00,17.0,13.0,-100.00,NNE,30,3.0,11.0,86,-99.99,,,-99.99,,2013-03-28 15:43:00,
2013-03-28 07:52:00,17.0,13.0,-100.00,ENE,70,3.0,9.0,86,-99.99,,,-99.99,,2013-03-28 15:52:00,
2013-03-28 08:02:00,17.0,13.0,-100.00,ENE,70,3.0,9.0,86,-99.99,,,-99.99,,2013-03-28 16:02:00,
2013-03-28 08:12:00,17.0,13.0,-100.00,ENE,70,3.0,9.0,86,-99.99,,,-99.99,,2013-03-28 16:12:00,
2013-03-28 08:22:00,16.0,13.0,-100.00,NNE,20,7.0,14.0,86,-99.99,,,-99.99,,2013-03-28 16:22:00,
2013-03-28 08:32:00,16.0,13.0,-100.00,NNE,20,7.0,14.0,86,-99.99,,,-99.99,,2013-03-28 16:32:00,
2013-03-28 08:42:00,16.0,13.0,-100.00,NNE,20,7.0,14.0,86,-99.99,,,-99.99,,2013-03-28 16:42:00,
2013-03-28 08:52:00,16.0,13.0,-100.00,North,10,5.0,14.0,86,-99.99,,,-99.99,,2013-03-28 16:52:00,
2013-03-28 09:02:00,16.0,13.0,-100.00,North,10,5.0,14.0,86,-99.99,,,-99.99,,2013-03-28 17:02:00,
2013-03-28 09:12:00,16.0,13.0,-100.00,North,10,5.0,14.0,86,-99.99,,,-99.99,,2013-03-28 17:12:00,
2013-03-28 09:22:00,17.0,13.0,-100.00,NNE,25,8.0,14.0,86,-99.99,,,-99.99,,2013-03-28 17:22:00,
2013-03-28 09:32:00,17.0,13.0,-100.00,NNE,25,8.0,14.0,86,-99.99,,,-99.99,,2013-03-28 17:32:00,
2013-03-28 09:42:00,17.0,13.0,-100.00,NNE,25,8.0,14.0,86,-99.99,,,-99.99,,2013-03-28 17:42:00,
2013-03-28 09:52:00,18.0,14.0,-100.00,NNE,20,6.0,14.0,85,-99.99,,,-99.99,,2013-03-28 17:52:00,
2013-03-28 10:02:00,18.0,14.0,-100.00,NNE,20,6.0,14.0,85,-99.99,,,-99.99,,2013-03-28 18:02:00,
2013-03-28 10:12:00,18.0,14.0,-100.00,NNE,20,6.0,14.0,85,-99.99,,,-99.99,,2013-03-28 18:12:00,
2013-03-28 10:22:00,18.0,14.0,-100.00,NNE,15,4.0,16.0,85,-99.99,,,-99.99,,2013-03-28 18:22:00,
2013-03-28 10:32:00,18.0,14.0,-100.00,NNE,15,4.0,16.0,85,-99.99,,,-99.99,,2013-03-28 18:32:00,
2013-03-28 10:42:00,18.0,14.0,-100.00,NNE,15,4.0,16.0,85,-99.99,,,-99.99,,2013-03-28 18:42:00,
2013-03-28 10:52:00,19.0,15.0,-100.00,NNE,15,2.0,12.0,84,-99.99,,,-99.99,,2013-03-28 18:52:00,
2013-03-28 11:02:00,19.0,15.0,-100.00,NNE,15,2.0,12.0,84,-99.99,,,-99.99,,2013-03-28 19:02:00,
2013-03-28 11:12:00,19.0,15.0,-100.00,NNE,15,2.0,12.0,84,-99.99,,,-99.99,,2013-03-28 19:12:00,
2013-03-28 11:22:00,19.0,15.0,-100.00,NNE,20,7.0,16.0,84,-99.99,,,-99.99,,2013-03-28 19:22:00,
2013-03-28 11:32:00,19.0,15.0,-100.00,NNE,20,7.0,16.0,84,-99.99,,,-99.99,,2013-03-28 19:32:00,
2013-03-28 11:42:00,19.0,15.0,-100.00,NNE,20,7.0,16.0,84,-99.99,,,-99.99,,2013-03-28 19:42:00,
2013-03-28 11:52:00,20.0,16.0,-100.00,North,0,6.0,14.0,84,-99.99,,,-99.99,,2013-03-28 19:52:00,
2013-03-28 12:02:00,20.0,16.0,-100.00,North,0,6.0,14.0,84,-99.99,,,-99.99,,2013-03-28 20:02:00,
2013-03-28 12:12:00,20.0,16.0,-100.00,North,0,6.0,14.0,84,-99.99,,,-99.99,,2013-03-28 20:12:00,
2013-03-28 12:22:00,21.0,17.0,-100.00,North,0,3.0,11.0,83,-99.99,,,-99.99,,2013-03-28 20:22:00,
2013-03-28 12:32:00,21.0,17.0,-100.00,North,0,3.0,11.0,83,-99.99,,,-99.99,,2013-03-28 20:32:00,
2013-03-28 12:42:00,21.0,17.0,-100.00,North,0,3.0,11.0,83,-99.99,,,-99.99,,2013-03-28 20:42:00,
2013-03-28 12:52:00,22.0,17.0,-100.00,NNE,15,6.0,11.0,83,-99.99,,,-99.99,,2013-03-28 20:52:00,
2013-03-28 13:02:00,22.0,17.0,-100.00,NNE,15,6.0,11.0,83,-99.99,,,-99.99,,2013-03-28 21:02:00,
2013-03-28 13:12:00,22.0,17.0,-100.00,NNE,15,6.0,11.0,83,-99.99,,,-99.99,,2013-03-28 21:12:00,
2013-03-28 13:22:00,23.0,17.0,-100.00,North,0,5.0,15.0,80,-99.99,,,-99.99,,2013-03-28 21:22:00,
2013-03-28 13:32:00,23.0,17.0,-100.00,North,0,5.0,15.0,80,-99.99,,,-99.99,,2013-03-28 21:32:00,
2013-03-28 13:42:00,23.0,17.0,-100.00,North,0,5.0,15.0,80,-99.99,,,-99.99,,2013-03-28 21:42:00,
2013-03-28 13:52:00,24.0,18.0,-100.00,NNE,30,6.0,16.0,78,-99.99,,,-99.99,,2013-03-28 21:52:00,
2013-03-28 14:02:00,24.0,18.0,-100.00,NNE,30,6.0,16.0,78,-99.99,,,-99.99,,2013-03-28 22:02:00,
2013-03-28 14:12:00,24.0,18.0,-100.00,NNE,30,6.0,16.0,78,-99.99,,,-99.99,,2013-03-28 22:12:00,
2013-03-28 14:22:00,25.0,19.0,-100.00,NNE,15,3.0,20.0,78,-99.99,,,-99.99,,2013-03-28 22:22:00,
2013-03-28 14:32:00,25.0,19.0,-100.00,NNE,15,3.0,20.0,78,-99.99,,,-99.99,,2013-03-28 22:32:00,
2013-03-28 14:42:00,25.0,19.0,-100.00,NNE,15,3.0,20.0,78,-99.99,,,-99.99,,2013-03-28 22:42:00,
2013-03-28 14:52:00,25.0,19.0,-100.00,North,0,6.0,19.0,79,-99.99,,,-99.99,,2013-03-28 22:52:00,
2013-03-28 15:02:00,25.0,19.0,-100.00,North,0,6.0,19.0,79,-99.99,,,-99.99,,2013-03-28 23:02:00,
2013-03-28 15:12:00,25.0,19.0,-100.00,North,0,6.0,19.0,79,-99.99,,,-99.99,,2013-03-28 23:12:00,
2013-03-28 15:21:00,26.0,20.0,-100.00,NNE,20,4.0,16.0,79,-99.99,,,-99.99,,2013-03-28 23:21:00,
2013-03-28 15:32:00,26.0,20.0,-100.00,NNE,20,4.0,16.0,79,-99.99,,,-99.99,,2013-03-28 23:32:00,
2013-03-28 15:42:00,26.0,20.0,-100.00,NNE,20,4.0,16.0,79,-99.99,,,-99.99,,2013-03-28 23:42:00,
2013-03-28 16:02:00,27.0,20.0,-100.00,NNW,345,6.0,18.0,77,-99.99,,,-99.99,,2013-03-29 00:02:00,
2013-03-28 16:12:00,27.0,20.0,-100.00,NNW,345,6.0,18.0,77,-99.99,,,-99.99,,2013-03-29 00:12:00,
2013-03-28 16:22:00,26.0,20.0,-100.00,North,0,7.0,21.0,78,-99.99,,,-99.99,,2013-03-29 00:22:00,
2013-03-28 16:32:00,26.0,20.0,-100.00,North,0,7.0,21.0,78,-99.99,,,-99.99,,2013-03-29 00:32:00,
2013-03-28 16:42:00,26.0,20.0,-100.00,North,0,7.0,21.0,78,-99.99,,,-99.99,,2013-03-29 00:42:00,
2013-03-28 16:51:00,26.0,20.0,-100.00,NNE,25,7.0,22.0,79,-99.99,,,-99.99,,2013-03-29 00:51:00,
2013-03-28 17:02:00,26.0,20.0,-100.00,NNE,25,7.0,22.0,79,-99.99,,,-99.99,,2013-03-29 01:02:00,
2013-03-28 17:12:00,26.0,20.0,-100.00,NNE,25,7.0,22.0,79,-99.99,,,-99.99,,2013-03-29 01:12:00,
2013-03-28 17:22:00,26.0,21.0,-100.00,North,0,10.0,19.0,80,-99.99,,,-99.99,,2013-03-29 01:22:00,
2013-03-28 17:32:00,26.0,21.0,-100.00,North,0,10.0,19.0,80,-99.99,,,-99.99,,2013-03-29 01:32:00,
2013-03-28 17:42:00,26.0,21.0,-100.00,North,0,10.0,19.0,80,-99.99,,,-99.99,,2013-03-29 01:42:00,
2013-03-28 17:52:00,26.0,21.0,-100.00,North,0,10.0,19.0,80,-99.99,,,-99.99,,2013-03-29 01:52:00,
2013-03-28 18:22:00,27.0,22.0,-100.00,North,0,9.0,19.0,82,-99.99,,,-99.99,,2013-03-29 02:22:00,
2013-03-28 18:32:00,27.0,22.0,-100.00,North,0,9.0,19.0,82,-99.99,,,-99.99,,2013-03-29 02:32:00,
2013-03-28 18:42:00,27.0,22.0,-100.00,North,0,9.0,19.0,82,-99.99,,,-99.99,,2013-03-29 02:42:00,
2013-03-28 18:52:00,27.0,23.0,-100.00,NNW,340,6.0,16.0,84,-99.99,,,-99.99,,2013-03-29 02:52:00,
2013-03-28 19:01:00,27.0,23.0,-100.00,NNW,340,6.0,16.0,84,-99.99,,,-99.99,,2013-03-29 03:01:00,
2013-03-28 19:12:00,27.0,23.0,-100.00,NNW,340,6.0,16.0,84,-99.99,,,-99.99,,2013-03-29 03:12:00,
2013-03-28 19:21:00,28.0,24.0,-100.00,North,0,5.0,20.0,85,-99.99,,,-99.99,,2013-03-29 03:21:00,
2013-03-28 19:32:00,28.0,24.0,-100.00,North,0,5.0,20.0,85,-99.99,,,-99.99,,2013-03-29 03:32:00,
2013-03-28 19:42:00,28.0,24.0,-100.00,North,0,5.0,20.0,85,-99.99,,,-99.99,,2013-03-29 03:42:00,
2013-03-28 19:52:00,28.0,24.0,-100.00,NNW,345,7.0,17.0,87,-99.99,,,-99.99,,2013-03-29 03:52:00,
2013-03-28 20:02:00,28.0,24.0,-100.00,NNW,345,7.0,17.0,87,-99.99,,,-99.99,,2013-03-29 04:02:00,
2013-03-28 20:12:00,28.0,24.0,-100.00,NNW,345,7.0,17.0,87,-99.99,,,-99.99,,2013-03-29 04:12:00,
2013-03-28 20:22:00,28.0,24.0,-100.00,NNW,335,6.0,18.0,87,-99.99,,,-99.99,,2013-03-29 04:22:00,
2013-03-28 20:33:00,28.0,24.0,-100.00,NNW,335,6.0,18.0,87,-99.99,,,-99.99,,2013-03-29 04:33:00,
2013-03-28 20:42:00,28.0,24.0,-100.00,NNW,335,6.0,18.0,87,-99.99,,,-99.99,,2013-03-29 04:42:00,
2013-03-28 20:52:00,28.0,25.0,-100.00,NNW,345,10.0,21.0,88,-99.99,,,-99.99,,2013-03-29 04:52:00,
2013-03-28 21:02:00,28.0,25.0,-100.00,NNW,345,10.0,21.0,88,-99.99,,,-99.99,,2013-03-29 05:02:00,
2013-03-28 21:12:00,28.0,25.0,-100.00,NNW,345,10.0,21.0,88,-99.99,,,-99.99,,2013-03-29 05:12:00,
2013-03-28 21:22:00,28.0,25.0,-100.00,North,0,6.0,17.0,89,-99.99,,,-99.99,,2013-03-29 05:22:00,
2013-03-28 21:32:00,28.0,25.0,-100.00,North,0,6.0,17.0,89,-99.99,,,-99.99,,2013-03-29 05:32:00,
2013-03-28 21:43:00,28.0,25.0,-100.00,North,0,6.0,17.0,89,-99.99,,,-99.99,,2013-03-29 05:43:00,
2013-03-28 21:52:00,28.0,25.0,-100.00,North,350,7.0,22.0,89,-99.99,,,-99.99,,2013-03-29 05:52:00,
2013-03-28 22:02:00,28.0,25.0,-100.00,North,350,7.0,22.0,89,-99.99,,,-99.99,,2013-03-29 06:02:00,
2013-03-28 22:12:00,28.0,25.0,-100.00,North,350,7.0,22.0,89,-99.99,,,-99.99,,2013-03-29 06:12:00,
2013-03-28 22:22:00,28.0,26.0,-100.00,North,0,7.0,16.0,89,-99.99,,,-99.99,,2013-03-29 06:22:00,
2013-03-28 22:32:00,28.0,26.0,-100.00,North,0,7.0,16.0,89,-99.99,,,-99.99,,2013-03-29 06:32:00,
2013-03-28 22:42:00,28.0,26.0,-100.00,North,0,7.0,16.0,89,-99.99,,,-99.99,,2013-03-29 06:42:00,
2013-03-28 22:52:00,28.0,26.0,-100.00,NNE,25,7.0,17.0,90,-99.99,,,-99.99,,2013-03-29 06:52:00,
2013-03-28 23:02:00,28.0,26.0,-100.00,NNE,25,7.0,17.0,90,-99.99,,,-99.99,,2013-03-29 07:02:00,
2013-03-28 23:12:00,28.0,26.0,-100.00,NNE,25,7.0,17.0,90,-99.99,,,-99.99,,2013-03-29 07:12:00,
2013-03-28 23:21:00,28.0,26.0,-100.00,NNE,30,4.0,17.0,90,-99.99,,,-99.99,,2013-03-29 07:21:00,
2013-03-28 23:32:00,28.0,26.0,-100.00,NNE,30,4.0,17.0,90,-99.99,,,-99.99,,2013-03-29 07:32:00,
2013-03-28 23:42:00,28.0,26.0,-100.00,NNE,30,4.0,17.0,90,-99.99,,,-99.99,,2013-03-29 07:42:00,
2013-03-28 23:52:00,29.0,26.0,-100.00,North,355,6.0,12.0,90,-99.99,,,-99.99,,2013-03-29 07:52:00,